This demonstration page uses our WeatherBlox Daily Observations layout. Learn more.

Left ArrowRight Arrow

Hourly Observations for October 4, 2015

Temp ( °F °C ) Dew Point ( °F °C ) Humidity (%) Winds ( mph kmh ) Pressure ( in mb ) Visibility ( mi km ) Precip ( " mm )
12:53 am 00:53 Clear 71 21.7 37 2.8 29 29 N 14 22 29.59 1002 10 16 0.00 0.00
1:53 am 01:53 Clear 70 21.1 36 2.2 29 29 NNW 8 13 29.58 1002 10 16 0.00 0.00
2:53 am 02:53 Clear 71 21.7 36 2.2 28 28 NNE 13 20 29.57 1002 10 16 0.00 0.00
3:53 am 03:53 Clear 71 21.7 38 3.3 30 30 NNE 20 31 29.57 1001 10 16 0.00 0.00
4:53 am 04:53 Clear 71 21.7 37 2.8 29 29 N 20 31 29.57 1001 10 16 0.00 0.00
5:53 am 05:53 Clear 72 22.2 38 3.3 29 29 N 12 19 29.58 1002 10 16 0.00 0.00
6:53 am 06:53 Clear 73 22.8 39 3.9 29 29 N 14 22 29.60 1002 10 16 0.00 0.00
7:53 am 07:53 Sunny 74 23.3 40 4.4 29 29 N 22 35 29.62 1003 10 16 0.00 0.00
8:53 am 08:53 Sunny 77 25 40 4.4 26 26 N 20 31 29.63 1004 10 16 0.00 0.00
9:53 am 09:53 Sunny 80 26.7 41 5 25 25 NNE 23 37 29.64 1004 10 16 0.00 0.00
10:53 am 10:53 Sunny 82 27.8 41 5 23 23 NNE 21 33 29.62 1003 10 16 0.00 0.00
11:53 am 11:53 Sunny 85 29.4 40 4.4 20 20 NE 20 31 29.59 1002 10 16 0.00 0.00
12:53 pm 12:53 Sunny 89 31.7 39 3.9 17 17 NNE 17 28 29.58 1002 10 16 0.00 0.00
1:53 pm 13:53 Sunny 90 32.2 39 3.9 17 17 NNE 13 20 29.56 1001 10 16 0.00 0.00
2:53 pm 14:53 Sunny 90 32.2 39 3.9 17 17 N 13 20 29.56 1001 10 16 0.00 0.00
3:53 pm 15:53 Sunny 92 33.3 39 3.9 16 16 N 14 22 29.54 1001 10 16 0.00 0.00
4:53 pm 16:53 Sunny 92 33.3 38 3.3 15 15 N 9 15 29.54 1000 10 16 0.00 0.00
5:53 pm 17:53 Sunny 91 32.8 38 3.3 15 15 N 9 15 29.54 1000 10 16 0.00 0.00
6:53 pm 18:53 Clear 87 30.6 38 3.3 18 18 N 5 7 29.55 1001 10 16 0.00 0.00
7:53 pm 19:53 Clear 82 27.8 40 4.4 22 22 N 6 9 29.56 1001 10 16 0.00 0.00
8:53 pm 20:53 Clear 78 25.6 40 4.4 26 26 Calm 29.59 1002 10 16 0.00 0.00
9:53 pm 21:53 Clear 75 23.9 41 5 29 29 NNW 7 11 29.61 1003 10 16 0.00 0.00
10:53 pm 22:53 Clear 74 23.3 40 4.4 29 29 N 3 6 29.63 1003 10 16 0.00 0.00
11:53 pm 23:53 Clear 72 22.2 48 8.9 43 43 S 6 9 29.67 1005 10 16 0.00 0.00

Powered by AerisWeather